Powrót do katalogu

FREGAT R/B

AktywnyMEO
NORAD 57518·ROCKET BODY·🇷🇺 Russia

Wystrzelony Aug 7, 2023 z Plesetsk Cosmodrome

Loading…

Następne Przeloty (najbliższe 24 godziny)

TLE

ŚwieżeSource: Space-Track

Epoka: Sep 14, 2026, 13:17 UTC

1 57518U 23114B   26257.55356736 -.00000010  00000-0  00000-0 0  9991
2 57518  65.3619  69.2758 0025360 196.5519 163.3903  2.13950534 24279

Śledź FREGAT R/B w czasie rzeczywistym z AllMySat

Download on the App Store